Home   Weather   Tampa   Past weeks

Flag for USA Past Weather in Tampa, Florida, USA — Yesterday and Last 2 Weeks

Now
59 °F

Fog.


Feels Like: 59 °F
Forecast: 63 / 80 °F
Wind: No wind

Location: Tampa, Peter O Knight Airport

Current Time: Feb 23, 2017 at 2:11:38 am

Latest Report: Feb 23, 2017 at 1:35 am


Visibility: 5 mi

Pressure: 29.65 "Hg

Humidity: 100%

Dew Point: 59 °F

Location of TampaLocation

Past Weather in Tampa — Graph

°F

Tampa Temperature Yesterday

Maximum temperature yesterday: 75 °F (at 12:55 pm)
Minimum temperature yesterday: 59 °F (at 11:55 pm)
Average temperature yesterday: 67 °F

High & Low Weather Summary for the Past Weeks

 TemperatureHumidityPressure
High84 °F (Feb 20, 3:15 pm)100% (Feb 8, 12:35 am)30.42 "Hg (Feb 8, 12:35 am)
Low50 °F (Feb 17, 4:15 am)25% (Feb 10, 4:15 pm)29.65 "Hg (Feb 22, 4:55 pm)
Average69 °F76%30.06 "Hg
* Reported Feb 8 12:35 am — Feb 23 12:55 am, Tampa, Weather by CustomWeather, © 2017

Note: Actual official high and low records may vary slightly from our data, if they occured in-between our weather recording intervals... More about our weather records

Advertising

Tampa Weather History for the Previous 24 Hours

Scroll right to see more
 ConditionsComfort  
Time TempWeatherWind HumidityBarometerVisibility
12:55 am
Thu, Feb 23
59 °FPassing clouds.No wind100%29.66 "Hg7 mi
11:55 pm
Wed, Feb 22
59 °FPartly cloudy.5 mph100%29.66 "Hg10 mi
11:15 pm61 °FPassing clouds.No wind100%29.66 "Hg10 mi
10:55 pm61 °FPassing clouds.3 mph94%29.67 "Hg10 mi
10:35 pm61 °FPartly cloudy.3 mph100%29.67 "Hg10 mi
9:55 pm61 °FPassing clouds.6 mph100%29.69 "Hg10 mi
9:35 pm63 °FPassing clouds.5 mph94%29.68 "Hg10 mi
8:55 pm63 °FMostly cloudy.5 mph94%29.69 "Hg10 mi
8:35 pm63 °FMostly cloudy.8 mph94%29.69 "Hg10 mi
7:55 pm63 °FOvercast.5 mph94%29.67 "Hg10 mi
7:15 pm63 °FPassing clouds.No wind94%29.65 "Hg10 mi
6:55 pm64 °FPassing clouds.No wind94%29.65 "Hg10 mi
6:15 pm64 °FOvercast.5 mph94%29.65 "Hg10 mi
5:35 pm64 °FDrizzle. Overcast.7 mph94%29.66 "Hg10 mi
4:55 pm64 °FRain. Overcast.10 mph100%29.65 "Hg5 mi
4:35 pm66 °FLight rain. Partly sunny.6 mph94%29.67 "Hg4 mi
3:55 pm64 °FRain. Cloudy.No wind94%29.67 "Hg2 mi
3:35 pm64 °FHeavy rain. Cloudy.No wind94%29.68 "Hg2 mi
2:55 pm68 °FRain. Cloudy.13 mph88%29.68 "Hg5 mi
2:15 pm73 °FCloudy.12 mph74%29.67 "Hg10 mi
1:35 pm73 °FMostly cloudy.12 mph74%29.68 "Hg10 mi
12:55 pm75 °FPartly sunny.16 mph69%29.70 "Hg10 mi
12:15 pm73 °FPartly sunny.17 mph83%29.70 "Hg10 mi
11:55 am72 °FBroken clouds.15 mph88%29.70 "Hg10 mi
11:15 am72 °FOvercast.20 mph88%29.72 "Hg10 mi
10:35 am70 °FBroken clouds.16 mph94%29.73 "Hg10 mi
9:55 am68 °FOvercast.14 mph88%29.75 "Hg10 mi
9:15 am68 °FCloudy.15 mph94%29.76 "Hg10 mi
8:55 am68 °FOvercast.15 mph94%29.76 "Hg10 mi
8:15 am68 °FLight rain. Overcast.7 mph94%29.79 "Hg7 mi
7:55 am68 °FRain. Overcast.7 mph94%29.80 "Hg10 mi
7:15 am68 °FRain. Broken clouds.6 mph94%29.80 "Hg7 mi
6:55 am68 °FRain. Mostly cloudy.3 mph88%29.81 "Hg7 mi
6:35 am68 °FRain. Mostly cloudy.5 mph88%29.81 "Hg7 mi
5:55 am70 °FOvercast.5 mph83%29.80 "Hg10 mi
5:35 am70 °FMostly cloudy.6 mph83%29.79 "Hg10 mi
4:55 am70 °FPartly cloudy.9 mph83%29.78 "Hg10 mi
4:15 am70 °FMostly cloudy.7 mph83%29.79 "Hg10 mi
3:35 am70 °FPassing clouds.8 mph83%29.80 "Hg10 mi
2:55 am72 °FClear.8 mph73%29.80 "Hg10 mi
2:15 am72 °FPassing clouds.10 mph78%29.83 "Hg10 mi
Weather by CustomWeather, © 2017

See weather overviewHow to use our weather pages